AirNav   GEt a FREE Bose Revolve Bluetooth Speaker
 
 456 users online  

KSPH Springhill Airport
Springhill, Louisiana, USA

GOING TO SPRINGHILL?


FAA INFORMATION EFFECTIVE 06 DECEMBER 2018

Location

FAA Identifier: SPH
Lat/Long: 32-59-01.4000N / 093-24-33.0000W
32-59.023333N / 093-24.550000W
32.9837222 / -93.4091667
(estimated)
Elevation: 217.6 ft. / 66.3 m (surveyed)
Variation: 02E (2010)
From city: 3 miles E of SPRINGHILL, LA
Time zone: UTC -6 (UTC -5 during Daylight Saving Time)
Zip code: 71075

Airport Operations

Airport use: Open to the public
Activation date: 01/1966
Control tower: no
ARTCC: FORT WORTH CENTER
FSS: DE RIDDER FLIGHT SERVICE STATION
NOTAMs facility: DRI (NOTAM-D service available)
Attendance: CONTINUOUS
Wind indicator: lighted
Segmented circle: no
Lights: MIRL RY 18/36, REIL RY 36 PRESET LOW INTST DUSK-DAWN; TO INCR INTST ACTVT - CTAF.
Beacon: white-green (lighted land airport)
Operates sunset to sunrise.

Airport Communications

CTAF/UNICOM: 122.8
SHREVEPORT APPROACH: 118.6
SHREVEPORT DEPARTURE: 118.6
WX AWOS-2 at AGO (18 nm NE): 118.05 (870-901-3532)
  • DURG HRS 0000-0600 APCH/DEP SVC IS PRVDD ON FREQS 121.4/381.6; OTHER TIMES PRIMARY APCH/DEP FREQS APPLY.

Nearby radio navigation aids

VOR radial/distance  VOR name  Freq  Var
EICr051/23.9BELCHER VORTAC117.4007E
EMGr008/36.2ELM GROVE VORTAC111.2007E
ELDr237/37.2EL DORADO VOR/DME115.5007E

 
NDB name  Hdg/Dist  Freq  Var  ID
ATLANTA096/39.934704EATA .- - .-

Airport Services

Fuel available: 100LL
FUEL NOT AVBL EXCEPT CASH
Parking: tiedowns
Airframe service: NONE
Powerplant service: NONE
Bottled oxygen: NONE
Bulk oxygen: NONE

Runway Information

Runway 18/36

Dimensions: 4202 x 75 ft. / 1281 x 23 m
Surface: asphalt, in fair condition
Runway edge lights: medium intensity
RUNWAY 18  RUNWAY 36
Latitude: 32-59.369873N32-58.677065N
Longitude: 093-24.551142W093-24.549622W
Elevation: 205.1 ft.217.5 ft.
Gradient: 0.3% UP
Traffic pattern: leftleft
Runway heading: 178 magnetic, 180 true358 magnetic, 360 true
Markings: nonprecision, in fair conditionnonprecision, in fair condition
Visual slope indicator: 2-light PAPI on left (3.50 degrees glide path)2-light PAPI on left (3.50 degrees glide path)
Runway end identifier lights: noyes
Touchdown point: yes, no lightsyes, no lights
Obstructions: 95 ft. trees, 2158 ft. from runway, 20:1 slope to clear80 ft. trees, 1339 ft. from runway, 89 ft. left of centerline, 14:1 slope to clear

Airport Ownership and Management from official FAA records

Ownership: Publicly-owned
Owner: CITY OF SPRINGHILL
MAYOR'S OFFICE, P.O. BOX 398
SPRINGHILL, LA 71075
Phone 318-539-5681
Manager: BOB GOODMAN
367 AIRPORT ROAD
SPRINGHILL, LA 71075
Phone 318-539-4568

Airport Operational Statistics

Aircraft based on the field: 10
Single engine airplanes: 8
Multi engine airplanes: 1
Ultralights: 1
    
Aircraft operations: avg 120/week *
60% local general aviation
40% transient general aviation
* for 12-month period ending 26 September 2017

Instrument Procedures

NOTE: All procedures below are presented as PDF files. If you need a reader for these files, you should download the free Adobe Reader.

NOT FOR NAVIGATION. Please procure official charts for flight.
FAA instrument procedures published for use from 6 December 2018 at 0901Z to 3 January 2019 at 0900Z.

 
IAPs - Instrument Approach Procedures
RNAV (GPS) RWY 36   download (227KB)
NOTE: Special Take-Off Minimums/Departure Procedures apply   download (201KB)

Other nearby airports with instrument procedures:

KAGO - Ralph C Weiser Field Airport (18 nm NE)
KMNE - Minden Airport (21 nm S)
3F4 - Vivian Airport (31 nm W)
KDTN - Shreveport Downtown Airport (32 nm SW)
KBAD - Barksdale Air Force Base (32 nm SW)
 
Loc | Ops | Rwys | IFR | FBO | Links
Com | Nav | Svcs | Stats | Notes


 
Area around KSPH (Springhill Airport)
 
Road maps at: MapQuest Bing Google
 
Aerial photo
WARNING: Photo may not be current or correct
Aerial photo of KSPH (Springhill Airport)
Photo by Dwayne Wilson
Photo taken 27-Sep-2014
looking northwest.

Do you have a better or more recent aerial photo of Springhill Airport that you would like to share? If so, please send us your photo.

 
Sectional chart

 
Airport distance calculator
Flying to Springhill Airport? Find the distance to fly.

From to KSPH

Sunrise and sunset
Times for 19-Dec-2018
 Local
(UTC-6)
 Zulu
(UTC)
Morning civil twilight06:4512:45
Sunrise07:1313:13
Sunset17:0923:09
Evening civil twilight17:3623:36

Current date and time
Zulu (UTC)  19-Dec-2018 06:24:16
Local (UTC-6)  19-Dec-2018 00:24:16
 
METAR
KMNE 
21nm S 
190555Z AUTO 00000KT 1/4SM FG OVC002 07/07 A3005 RMK AO2 T00680065 10102 20052 401180052
KDTN 
31nm SW 
190604Z AUTO 00000KT 2SM BR OVC003 06/06 A3005 RMK AO2 T00610056
KBAD 
32nm SW 
190553Z 18002KT 1/16SM FG VV001 04/03 A3006 RMK AO2A TWR VIS 0000 SLPNO WND DATA ESTMD ALSTG/SLPNO ESTMD RVRNO $
KELD 
33nm NE 
190553Z AUTO 00000KT 1/2SM FG VV003 04/04 A3004 RMK AO2 SLP172 T00440044 10083 20039 401000039 58010
KSHV 
39nm SW 
190603Z 00000KT 1/16SM FG VV002 06/06 A3004 RMK AO2 T00610061
KTXK 
40nm NW 
190553Z AUTO 00000KT 6SM BR OVC009 07/07 A3004 RMK AO2 CIG 007V010 SLP172 T00670067 10094 20061 401000061 58007
TAF
KBAD 
32nm SW 
190504Z 1905/2008 11003KT 0800 FG VV001 QNH3003INS BECMG 1912/1913 11003KT 3200 BR OVC005 QNH3003INS BECMG 1915/1916 09005KT 4800 -SHRA BR OVC007 QNH3000INS TX12/1921Z TN04/1912Z
KELD 
33nm NE 
190550Z 1906/2006 00000KT 1/4SM FG VV002 TEMPO 1906/1909 1/4SM FG VV003 FM190900 00000KT 1/4SM FG OVC003 TEMPO 1914/1918 07003KT 4SM -SHRA OVC007 FM191800 VRB03KT P6SM -SHRA OVC012 FM200300 00000KT 4SM -SHRA BR OVC004
KSHV 
39nm SW 
190550Z 1906/2006 00000KT 1/4SM FG VV001 TEMPO 1906/1910 1/4SM FG OVC002 FM191000 VRB04KT 1SM BR VCSH OVC004 FM191200 14003KT 1 1/2SM -SHRA BR OVC004 FM192100 03003KT 4SM -DZ BR OVC004
NOTAMs
Click for the latest NOTAMs
NOTAMs are issued by the DoD/FAA and will open in a separate window not controlled by AirNav.

 

 
 

FBO, Fuel Providers, and Aircraft Ground Support

  
 Business Name 
 
 Contact 
 
 Services / Description 
 
Fuel Prices
 
Comments
  
City of Springhill (FBO) 318-539-4568
no information available

If you are affiliated with City of Springhill (FBO) and would like to show here your services, contact info, web link, logo, and more, click here
no prices available
 
   write
Update Fuel Prices
 

Would you like to see your business listed on this page?

 If your business provides an interesting product or service to pilots, flight crews, aircraft, or users of the Springhill Airport, you should consider listing it here.  To start the listing process, click on the button below
 
Add a business
 

Other Pages about Springhill Airport

www.springhilllouisiana.com/airportindpark.htm
 
Update a link
 
Copyright © AirNav, LLC. All rights reserved. Privacy Policy  Contact